Regional Weather Roundup
Issued by NWS

Home | Current Version | Previous Version | Graphics & Text | Print | Product List | Glossary On
Versions: 1 2 3 4 5 6 7 8 9 10 11 12 13 14 15 16 17 18 19 20 21 22 23 24 25 26 27 28 29 30 31 32 33 34 35 36 37 38 39 40 41 42 43 44 45 46 47 48 49 50
000
ASUS43 KFSD 120510
RWRSD

WEATHER ROUNDUP FOR SOUTH DAKOTA
NATIONAL WEATHER SERVICE SIOUX FALLS SD
1200 AM CDT SAT JUL 12 2014

NOTE: "FAIR" INDICATES FEW OR NO CLOUDS BELOW 12,000 FEET WITH NO
SIGNIFICANT WEATHER AND/OR OBSTRUCTIONS TO VISIBILITY.


SDZ001>005-009-010-012>017-120600-
NORTHWEST AND NORTH CENTRAL SOUTH DAKOTA

CITY           SKY/WX    TMP DP  RH WIND       PRES   REMARKS
BUFFALO          N/A     65  58  78 E8        30.08S
FAITH            N/A     70  60  70 NE10      30.09S
MOBRIDGE       CLOUDY    72  57  59 NE12      30.04F
$$

SDZ012>016-024>037-041>051-057-063-072>074-120600-
SOUTHWEST AND SOUTH CENTRAL SOUTH DAKOTA

CITY           SKY/WX    TMP DP  RH WIND       PRES   REMARKS
RAPID CTY ARPT CLOUDY    66  59  78 NW7       30.14R
PIERRE         CLOUDY    73  68  84 E3        30.01S
CUSTER         CLOUDY    59  55  87 W5        30.25F
ELLSWORTH AFB  CLOUDY    67  59  74 SW8       30.14R
PHILIP         RAIN      68  63  84 N6        30.06F
PINE RIDGE     CLOUDY    63  61  93 SE5       30.15F
WINNER         LGT RAIN  77  65  66 CALM      30.04R
$$

SDZ004>011-016>023-039-040-120600-
NORTHEAST SOUTH DAKOTA

CITY           SKY/WX    TMP DP  RH WIND       PRES   REMARKS
ABERDEEN       CLOUDY    71  64  78 NE6       30.04R
WATERTOWN      CLOUDY    71  66  84 CALM      30.03S
SISSETON         N/A     70  66  87 N6        30.02R
$$

SDZ017-020-022-023-036>040-048>070-120600-
SOUTHEAST SOUTH DAKOTA

CITY           SKY/WX    TMP DP  RH WIND       PRES   REMARKS
SIOUX FALLS    CLOUDY    74  71  91 S5        30.01F
HURON          LGT RAIN  79  71  76 CALM      29.99S
CHAMBERLAIN    CLOUDY    76  69  78 CALM      30.00S
MITCHELL       CLOUDY    77  75  93 NE3       29.99F
YANKTON          N/A     73  73 100 S10       30.00F
$$

ABBREVIATIONS USED IN REMARKS
   TC - TEMPERATURE IN CELSIUS
  WCI - WIND CHILL INDEX
   HX - HEAT INDEX
  VSB - VISIBILITY




USA.gov is the U.S. government's official web portal to all federal, state and local government web resources and services.